ASA328 KOAK-KSNA

Flight info

Callsign ASA328
Flight time N/A
Altitude 37000
Route CNDEL5 YYUNG TILLT RUKKI1
Aircraft B38M/M-SDE1FGHILORVWXY/HB1

Departure

Time 2026-05-07 23:51
Airport San Francisco Bay Oakland International Airport (KOAK)

Arrival

Time N/A
Airport John Wayne Orange County International Airport (KSNA)
Time Latitude Longitude Altitude Speed Heading
2026-05-07 23:36 37.71044 -122.21556 16 ft 0 kts 300°
2026-05-07 23:42 37.71043 -122.21555 14 ft 2 kts 300°
2026-05-07 23:43 37.71034 -122.21535 16 ft 3 kts 300°
2026-05-07 23:43 37.71025 -122.21515 16 ft 3 kts 300°
2026-05-07 23:43 37.71016 -122.21495 15 ft 3 kts 273°
2026-05-07 23:43 37.71021 -122.21473 15 ft 3 kts 208°
2026-05-07 23:44 37.71021 -122.21472 15 ft 0 kts 201°
2026-05-07 23:48 37.71015 -122.21476 18 ft 3 kts 201°
2026-05-07 23:48 37.70965 -122.21509 17 ft 12 kts 217°
2026-05-07 23:48 37.70875 -122.21596 14 ft 18 kts 219°
2026-05-07 23:48 37.70767 -122.21709 15 ft 23 kts 220°
2026-05-07 23:49 37.70618 -122.21751 12 ft 24 kts 138°
2026-05-07 23:49 37.70495 -122.21571 12 ft 29 kts 130°
2026-05-07 23:49 37.70353 -122.21395 9 ft 25 kts 154°
2026-05-07 23:49 37.70248 -122.21361 9 ft 9 kts 187°
2026-05-07 23:50 37.70201 -122.21423 10 ft 17 kts 256°
2026-05-07 23:50 37.70320 -122.21701 9 ft 71 kts 304°
2026-05-07 23:50 37.70801 -122.22415 4 ft 140 kts 310°
2026-05-07 23:50 37.71544 -122.23506 89 ft 183 kts 307°
2026-05-07 23:51 37.72467 -122.24825 158 ft 213 kts 309°
2026-05-07 23:51 37.73496 -122.26269 450 ft 236 kts 309°
2026-05-07 23:51 37.74543 -122.27929 1254 ft 247 kts 306°
2026-05-07 23:51 37.75660 -122.29680 1839 ft 261 kts 308°
2026-05-07 23:52 37.76879 -122.31446 1992 ft 275 kts 310°
2026-05-07 23:52 37.78131 -122.33322 1994 ft 290 kts 307°
2026-05-07 23:52 37.79202 -122.35509 2021 ft 299 kts 290°
2026-05-07 23:52 37.79501 -122.38147 2019 ft 311 kts 266°
2026-05-07 23:53 37.78916 -122.40644 2418 ft 308 kts 243°
2026-05-07 23:53 37.78658 -122.41186 2551 ft 307 kts 238°
2026-05-07 23:53 37.77137 -122.43032 3069 ft 305 kts 214°
2026-05-07 23:53 37.75123 -122.43917 3598 ft 317 kts 189°
2026-05-07 23:54 37.72857 -122.44279 4141 ft 339 kts 188°
2026-05-07 23:54 37.70461 -122.44545 5033 ft 343 kts 188°
2026-05-07 23:54 37.68122 -122.44828 6217 ft 332 kts 188°
2026-05-07 23:54 37.65867 -122.45152 7372 ft 320 kts 188°
2026-05-07 23:55 37.63696 -122.45463 8515 ft 308 kts 188°
2026-05-07 23:55 37.61603 -122.45746 9584 ft 301 kts 188°
2026-05-07 23:55 37.59481 -122.46032 10056 ft 316 kts 188°
2026-05-07 23:55 37.57220 -122.46342 10149 ft 332 kts 188°
2026-05-07 23:56 37.54926 -122.46652 10152 ft 332 kts 188°
2026-05-07 23:56 37.52617 -122.46964 10148 ft 334 kts 188°
2026-05-07 23:56 37.50303 -122.47278 10151 ft 334 kts 188°
2026-05-07 23:56 37.48001 -122.47670 10170 ft 334 kts 191°
2026-05-07 23:57 37.45698 -122.48110 10687 ft 336 kts 189°
2026-05-07 23:57 37.43515 -122.48471 11336 ft 339 kts 189°
2026-05-07 23:57 37.41172 -122.48893 12004 ft 343 kts 191°
2026-05-07 23:57 37.38835 -122.49347 12638 ft 346 kts 189°
2026-05-07 23:58 37.36440 -122.49803 13260 ft 350 kts 189°
2026-05-07 23:58 37.34017 -122.50243 13861 ft 354 kts 189°
2026-05-07 23:58 37.33506 -122.50336 13978 ft 355 kts 190°
2026-05-07 23:58 37.32827 -122.50461 14140 ft 356 kts 189°
2026-05-07 23:59 37.32309 -122.50557 14246 ft 356 kts 189°
2026-05-07 23:59 37.23305 -122.52230 16176 ft 370 kts 189°
2026-05-07 23:59 37.06691 -122.55295 19385 ft 393 kts 188°
2026-05-07 23:59 37.04157 -122.55764 19822 ft 395 kts 188°
2026-05-08 00:00 36.98691 -122.55144 20783 ft 403 kts 156°
2026-05-08 00:00 36.95730 -122.53022 21350 ft 407 kts 147°
2026-05-08 00:00 36.78702 -122.40499 24213 ft 426 kts 149°
2026-05-08 00:01 36.64989 -122.30386 25638 ft 433 kts 150°
2026-05-08 00:01 36.49064 -122.18748 26384 ft 439 kts 149°
2026-05-08 00:01 36.47206 -122.17377 26467 ft 439 kts 149°
2026-05-08 00:01 36.45898 -122.16398 26590 ft 438 kts 149°
2026-05-08 00:02 36.44589 -122.15426 26713 ft 440 kts 149°
2026-05-08 00:02 36.43264 -122.14459 26829 ft 442 kts 150°
2026-05-08 00:02 36.42454 -122.13874 26908 ft 443 kts 150°
2026-05-08 00:02 36.41786 -122.13396 27019 ft 442 kts 150°
2026-05-08 00:03 36.40648 -122.12586 27303 ft 440 kts 150°
2026-05-08 00:03 36.39916 -122.12064 27468 ft 438 kts 150°
2026-05-08 00:03 36.39275 -122.11606 27623 ft 437 kts 150°
2026-05-08 00:03 36.38616 -122.11134 27782 ft 436 kts 150°
2026-05-08 00:04 36.37961 -122.10662 27936 ft 434 kts 150°
2026-05-08 00:04 36.37059 -122.10008 28207 ft 431 kts 150°
2026-05-08 00:04 36.36413 -122.09539 28395 ft 429 kts 150°
2026-05-08 00:04 36.35541 -122.08903 28649 ft 426 kts 149°
2026-05-08 00:05 36.33235 -122.07224 29348 ft 418 kts 149°
2026-05-08 00:05 36.30754 -122.05431 30136 ft 408 kts 150°
2026-05-08 00:05 36.28323 -122.03685 30714 ft 401 kts 150°
2026-05-08 00:05 36.25922 -122.01955 31147 ft 397 kts 150°
2026-05-08 00:06 36.23548 -122.00240 31613 ft 393 kts 150°
2026-05-08 00:06 36.21200 -121.98549 32072 ft 388 kts 150°
2026-05-08 00:06 36.16747 -121.95345 32989 ft 377 kts 150°
2026-05-08 00:06 36.14662 -121.93847 33395 ft 373 kts 150°
2026-05-08 00:07 36.12427 -121.92242 33747 ft 370 kts 151°
2026-05-08 00:07 36.10211 -121.90651 34119 ft 366 kts 151°
2026-05-08 00:07 36.08044 -121.89096 34427 ft 363 kts 151°
2026-05-08 00:07 36.05872 -121.87539 34762 ft 359 kts 151°
2026-05-08 00:08 36.03728 -121.86003 35077 ft 354 kts 152°
2026-05-08 00:08 36.01607 -121.84484 35378 ft 350 kts 151°
2026-05-08 00:08 35.99621 -121.82694 35417 ft 355 kts 129°
2026-05-08 00:08 35.98047 -121.80340 35510 ft 359 kts 128°
2026-05-08 00:09 35.95019 -121.75332 35535 ft 370 kts 128°
2026-05-08 00:09 35.91785 -121.70256 35571 ft 382 kts 128°
2026-05-08 00:10 35.88491 -121.64987 35634 ft 395 kts 128°
2026-05-08 00:10 35.85063 -121.59555 35713 ft 413 kts 128°
2026-05-08 00:11 35.83283 -121.56733 35843 ft 419 kts 128°
2026-05-08 00:11 35.81481 -121.53871 36000 ft 425 kts 128°
2026-05-08 00:11 35.79652 -121.50974 36138 ft 431 kts 128°
2026-05-08 00:11 35.77795 -121.48037 36294 ft 437 kts 128°
2026-05-08 00:12 35.75913 -121.45064 36441 ft 443 kts 128°
2026-05-08 00:12 35.74009 -121.42055 36591 ft 449 kts 128°
2026-05-08 00:12 35.72076 -121.39004 36738 ft 455 kts 128°
2026-05-08 00:12 35.70120 -121.35922 36886 ft 460 kts 128°
2026-05-08 00:13 35.68136 -121.32795 37037 ft 466 kts 128°
2026-05-08 00:13 35.66122 -121.29627 37081 ft 468 kts 128°
2026-05-08 00:13 35.62142 -121.23370 37073 ft 461 kts 128°
2026-05-08 00:14 35.58210 -121.17203 37064 ft 460 kts 128°
2026-05-08 00:14 35.54226 -121.10964 37066 ft 462 kts 129°
2026-05-08 00:15 35.49803 -121.05365 37075 ft 459 kts 138°
2026-05-08 00:15 35.45141 -121.00011 37079 ft 459 kts 138°
2026-05-08 00:16 35.40448 -120.94704 37079 ft 460 kts 138°
2026-05-08 00:16 35.35610 -120.89572 37076 ft 460 kts 139°
2026-05-08 00:17 35.30828 -120.84369 37067 ft 460 kts 138°
2026-05-08 00:17 35.26020 -120.79202 37019 ft 460 kts 139°
2026-05-08 00:18 35.23613 -120.76622 36792 ft 459 kts 139°
2026-05-08 00:18 35.21227 -120.74045 36541 ft 457 kts 138°
2026-05-08 00:18 35.18815 -120.71446 36285 ft 468 kts 139°
2026-05-08 00:18 35.16333 -120.68787 36041 ft 481 kts 139°
2026-05-08 00:19 35.13789 -120.66064 35807 ft 489 kts 139°
2026-05-08 00:19 35.11235 -120.63325 35548 ft 487 kts 138°
2026-05-08 00:19 35.08693 -120.60599 35298 ft 485 kts 138°
2026-05-08 00:19 35.06158 -120.57887 35044 ft 484 kts 139°
2026-05-08 00:20 35.03537 -120.55320 34805 ft 483 kts 145°
2026-05-08 00:20 35.00741 -120.53032 34549 ft 481 kts 147°
2026-05-08 00:20 34.97969 -120.50844 34286 ft 481 kts 146°
2026-05-08 00:20 34.95163 -120.48593 34039 ft 482 kts 146°
2026-05-08 00:21 34.92390 -120.46317 33752 ft 479 kts 145°
2026-05-08 00:21 34.89628 -120.44062 33459 ft 476 kts 145°
2026-05-08 00:21 34.86859 -120.41839 33176 ft 475 kts 146°
2026-05-08 00:21 34.84109 -120.39633 32894 ft 471 kts 146°
2026-05-08 00:22 34.81398 -120.37439 32616 ft 466 kts 145°
2026-05-08 00:22 34.78702 -120.35255 32336 ft 463 kts 146°
2026-05-08 00:22 34.76024 -120.33101 32083 ft 460 kts 146°
2026-05-08 00:22 34.73365 -120.30967 31808 ft 457 kts 144°
2026-05-08 00:23 34.70715 -120.28833 31536 ft 456 kts 145°
2026-05-08 00:23 34.68079 -120.26711 31262 ft 453 kts 145°
2026-05-08 00:23 34.65451 -120.24604 30961 ft 451 kts 146°
2026-05-08 00:23 34.62837 -120.22515 30707 ft 450 kts 146°
2026-05-08 00:24 34.60226 -120.20426 30448 ft 448 kts 146°
2026-05-08 00:24 34.57628 -120.18348 30190 ft 446 kts 146°
2026-05-08 00:24 34.55041 -120.16282 29899 ft 444 kts 146°
2026-05-08 00:24 34.52461 -120.14224 29568 ft 442 kts 146°
2026-05-08 00:25 34.49931 -120.12205 29246 ft 440 kts 146°
2026-05-08 00:25 34.47383 -120.10174 28919 ft 437 kts 145°
2026-05-08 00:25 34.44855 -120.08160 28603 ft 433 kts 145°
2026-05-08 00:25 34.42344 -120.06163 28290 ft 431 kts 144°
2026-05-08 00:26 34.39847 -120.04176 27965 ft 429 kts 145°
2026-05-08 00:26 34.37357 -120.02196 27657 ft 427 kts 146°
2026-05-08 00:26 34.34873 -120.00225 27351 ft 424 kts 146°
2026-05-08 00:26 34.32412 -119.98271 27036 ft 423 kts 145°
2026-05-08 00:27 34.29957 -119.96320 26727 ft 421 kts 145°
2026-05-08 00:27 34.27513 -119.94384 26447 ft 419 kts 146°
2026-05-08 00:27 34.25077 -119.92462 26159 ft 418 kts 146°
2026-05-08 00:27 34.22650 -119.90541 25999 ft 416 kts 144°
2026-05-08 00:28 34.20222 -119.88616 25801 ft 419 kts 145°
2026-05-08 00:28 34.17790 -119.86693 25446 ft 416 kts 146°
2026-05-08 00:28 34.15377 -119.84792 25095 ft 413 kts 145°
2026-05-08 00:28 34.12976 -119.82899 24738 ft 411 kts 146°
2026-05-08 00:29 34.10590 -119.81014 24408 ft 409 kts 146°
2026-05-08 00:29 34.08225 -119.79124 24071 ft 406 kts 141°
2026-05-08 00:29 34.06262 -119.76729 23765 ft 401 kts 124°
2026-05-08 00:29 34.04802 -119.73887 23416 ft 398 kts 116°
2026-05-08 00:30 34.03559 -119.70909 23026 ft 397 kts 114°
2026-05-08 00:30 34.02303 -119.67961 22640 ft 395 kts 117°
2026-05-08 00:30 34.00869 -119.65143 22256 ft 394 kts 121°
2026-05-08 00:30 33.99369 -119.62378 21872 ft 392 kts 120°
2026-05-08 00:31 33.97955 -119.59581 21501 ft 389 kts 118°
2026-05-08 00:31 33.96600 -119.56781 21135 ft 387 kts 118°
2026-05-08 00:31 33.95238 -119.54041 20760 ft 385 kts 120°
2026-05-08 00:31 33.93836 -119.51304 20404 ft 383 kts 120°
2026-05-08 00:32 33.92449 -119.48571 20043 ft 381 kts 120°
2026-05-08 00:32 33.91084 -119.45845 19691 ft 379 kts 120°
2026-05-08 00:32 33.89723 -119.43134 19340 ft 377 kts 120°
2026-05-08 00:32 33.88382 -119.40435 18994 ft 375 kts 119°
2026-05-08 00:33 33.87074 -119.37724 18648 ft 373 kts 119°
2026-05-08 00:33 33.85773 -119.35034 18296 ft 371 kts 119°
2026-05-08 00:33 33.84462 -119.32365 17911 ft 369 kts 120°
2026-05-08 00:33 33.83156 -119.29713 17526 ft 367 kts 120°
2026-05-08 00:34 33.81866 -119.27079 17143 ft 365 kts 119°
2026-05-08 00:34 33.80580 -119.24450 16764 ft 363 kts 119°
2026-05-08 00:34 33.79303 -119.21846 16395 ft 361 kts 119°
2026-05-08 00:34 33.78032 -119.19264 16032 ft 358 kts 119°
2026-05-08 00:35 33.76771 -119.16698 15667 ft 355 kts 119°
2026-05-08 00:35 33.75520 -119.14153 15301 ft 353 kts 119°
2026-05-08 00:35 33.74274 -119.11620 14944 ft 351 kts 119°
2026-05-08 00:35 33.73031 -119.09097 14593 ft 349 kts 119°
2026-05-08 00:36 33.71800 -119.06599 14243 ft 347 kts 119°
2026-05-08 00:36 33.70574 -119.04113 13898 ft 345 kts 119°
2026-05-08 00:36 33.69341 -119.01645 13522 ft 343 kts 120°
2026-05-08 00:36 33.68105 -118.99199 13134 ft 342 kts 120°
2026-05-08 00:37 33.66879 -118.96767 12746 ft 340 kts 119°
2026-05-08 00:37 33.65662 -118.94340 12376 ft 338 kts 119°
2026-05-08 00:37 33.64451 -118.91925 12007 ft 337 kts 119°
2026-05-08 00:38 33.62033 -118.87127 11281 ft 334 kts 119°
2026-05-08 00:38 33.60836 -118.84750 11012 ft 331 kts 120°
2026-05-08 00:38 33.59643 -118.82383 10921 ft 333 kts 119°
2026-05-08 00:38 33.58451 -118.80022 10779 ft 325 kts 120°
2026-05-08 00:39 33.57333 -118.77717 10617 ft 314 kts 112°
2026-05-08 00:39 33.56717 -118.75271 10475 ft 301 kts 99°
2026-05-08 00:39 33.56375 -118.72828 10315 ft 295 kts 97°
2026-05-08 00:39 33.56054 -118.70402 10173 ft 294 kts 98°
2026-05-08 00:40 33.55662 -118.67999 10030 ft 293 kts 100°
2026-05-08 00:40 33.55252 -118.65609 9884 ft 293 kts 99°
2026-05-08 00:40 33.54861 -118.63206 9722 ft 294 kts 98°
2026-05-08 00:40 33.54480 -118.60794 9485 ft 294 kts 100°
2026-05-08 00:41 33.54090 -118.58380 9232 ft 295 kts 99°
2026-05-08 00:41 33.53697 -118.55974 8978 ft 294 kts 99°
2026-05-08 00:41 33.53305 -118.53567 8726 ft 294 kts 99°
2026-05-08 00:41 33.52921 -118.51199 8485 ft 294 kts 99°
2026-05-08 00:42 33.52531 -118.48798 8235 ft 293 kts 100°
2026-05-08 00:42 33.52175 -118.46394 7987 ft 292 kts 92°
2026-05-08 00:42 33.52105 -118.43968 7761 ft 291 kts 90°
2026-05-08 00:42 33.52041 -118.41543 7496 ft 291 kts 90°
2026-05-08 00:43 33.51976 -118.39130 7213 ft 289 kts 90°
2026-05-08 00:43 33.51915 -118.36764 6924 ft 282 kts 91°
2026-05-08 00:43 33.51855 -118.34414 6638 ft 282 kts 90°
2026-05-08 00:43 33.52109 -118.32111 6353 ft 279 kts 71°
2026-05-08 00:44 33.52778 -118.29966 6033 ft 267 kts 65°
2026-05-08 00:44 33.53499 -118.27971 5718 ft 260 kts 65°
2026-05-08 00:44 33.54170 -118.25945 5421 ft 262 kts 67°
2026-05-08 00:44 33.54810 -118.23890 5132 ft 264 kts 67°
2026-05-08 00:45 33.55455 -118.21841 5011 ft 258 kts 66°
2026-05-08 00:45 33.56085 -118.19875 4991 ft 248 kts 66°
2026-05-08 00:45 33.56706 -118.17985 4926 ft 240 kts 62°
2026-05-08 00:45 33.57563 -118.16327 4894 ft 232 kts 53°
2026-05-08 00:46 33.58464 -118.14726 4889 ft 231 kts 53°
2026-05-08 00:46 33.59361 -118.13125 4882 ft 231 kts 53°
2026-05-08 00:46 33.59964 -118.12044 4883 ft 231 kts 53°
2026-05-08 00:46 33.60842 -118.10466 4886 ft 232 kts 53°
2026-05-08 00:47 33.61739 -118.08855 4884 ft 232 kts 53°
2026-05-08 00:47 33.62637 -118.07241 4891 ft 233 kts 53°
2026-05-08 00:47 33.63540 -118.05620 4897 ft 234 kts 53°
2026-05-08 00:47 33.64444 -118.03995 4897 ft 234 kts 53°
2026-05-08 00:48 33.65347 -118.02369 4903 ft 234 kts 53°
2026-05-08 00:48 33.66247 -118.00749 4942 ft 234 kts 53°
2026-05-08 00:48 33.67156 -117.99115 4921 ft 234 kts 53°
2026-05-08 00:48 33.68062 -117.97483 4916 ft 235 kts 53°
2026-05-08 00:49 33.68965 -117.95856 4915 ft 234 kts 53°
2026-05-08 00:49 33.70004 -117.94389 4911 ft 229 kts 30°
2026-05-08 00:49 33.71370 -117.93456 4909 ft 224 kts 22°
2026-05-08 00:49 33.72769 -117.92607 4909 ft 226 kts 22°
2026-05-08 00:50 33.74163 -117.91734 4911 ft 227 kts 24°
2026-05-08 00:50 33.75551 -117.90839 4866 ft 226 kts 23°
2026-05-08 00:50 33.76943 -117.89944 4880 ft 227 kts 24°
2026-05-08 00:50 33.78329 -117.89055 4880 ft 225 kts 23°
2026-05-08 00:51 33.79713 -117.88170 4881 ft 225 kts 24°
2026-05-08 00:51 33.81098 -117.87283 4883 ft 226 kts 23°
2026-05-08 00:51 33.82481 -117.86396 4881 ft 225 kts 24°
2026-05-08 00:51 33.83869 -117.85506 4880 ft 226 kts 24°
2026-05-08 00:52 33.85256 -117.84616 4877 ft 227 kts 24°
2026-05-08 00:52 33.86645 -117.83724 4879 ft 225 kts 24°
2026-05-08 00:52 33.88030 -117.82834 4881 ft 226 kts 23°
2026-05-08 00:52 33.89417 -117.81944 4877 ft 226 kts 24°
2026-05-08 00:53 33.90807 -117.81051 4880 ft 226 kts 24°
2026-05-08 00:53 33.92204 -117.80153 4873 ft 228 kts 24°
2026-05-08 00:53 33.93603 -117.79254 4877 ft 229 kts 24°
2026-05-08 00:53 33.95005 -117.78350 4875 ft 229 kts 24°
2026-05-08 00:54 33.96400 -117.77451 4876 ft 227 kts 23°